Dewpoint
50 49 49 49 50 50 50 50 50 50 50 50 51 51 50 49 50 50 50 51 52 51 50 50 50 50 50 50 50 50 51 46 43 39 38 35 43 54 56 54 54 56 56 48 31 26 23 27 26 24 26 30 30 30 32 29 26 22 19 17 16 15 14 16 16 17 17 16 16 17 17 17 16 17 19 21 18 16 16 25 53 60 61 60 61 61 65 67
50 49 50 50 50 50 51 50 50 50 50 50 50 50 50 50 49 50 50 50 50 52 51 50 51 50 50 50 50 50 49 45 40 39 38 40 47 54 55 56 53 56 54 29 29 30 26 26 26 24 25 30 31 28 31 28 25 20 20 17 13 15 15 16 17 18 17 17 18 17 17 16 16 17 19 15 17 18 16 33 53 60 60 60 62 65 66 67
49 49 50 51 51 51 50 50 50 51 51 51 51 51 50 50 50 49 49 49 49 50 51 50 51 50 49 50 50 51 46 41 37 31 32 53 56 54 58 55 56 55 39 29 32 30 28 27 26 23 23 27 27 30 29 26 25 24 19 14 14 14 15 16 17 17 18 18 17 17 17 16 16 16 21 15 14 15 14 47 56 57 59 60 63 65 66 66
48 49 49 49 49 49 50 50 49 50 50 50 50 51 50 50 50 50 50 49 49 49 50 51 50 50 50 49 51 48 43 41 28 29 40 55 58 56 56 55 56 49 36 33 33 33 31 28 26 24 23 28 28 31 27 26 21 19 20 16 13 14 14 16 17 18 18 18 17 17 17 17 17 17 18 18 14 14 34 51 52 57 60 60 63 65 66 66
50 49 49 49 49 49 50 51 50 50 50 51 50 51 51 50 50 50 50 50 50 49 49 51 49 49 50 50 51 46 42 12 22 41 44 52 55 57 56 55 52 40 38 38 32 33 30 27 23 23 25 24 31 28 27 27 23 19 18 20 18 16 14 17 17 18 18 18 17 17 16 16 18 17 16 15 13 15 20 38 52 58 60 60 62 65 65 65
49 48 48 48 48 49 49 50 50 50 49 50 50 50 50 51 50 50 49 50 50 50 50 49 50 48 48 51 47 44 35 8 31 32 51 51 52 53 52 52 50 42 35 32 31 30 20 14 16 19 23 24 26 28 28 27 26 22 20 19 17 17 15 17 17 18 18 17 17 17 17 18 17 17 17 15 14 15 17 17 47 57 60 60 62 64 65 65
48 48 48 49 49 49 49 49 49 49 49 50 50 50 50 49 50 50 50 50 50 50 50 50 50 50 49 50 45 40 36 34 35 33 53 55 54 55 55 54 56 40 34 31 29 20 17 14 15 15 21 23 21 26 26 26 27 23 22 20 17 14 13 14 14 14 13 17 16 17 18 16 16 15 17 15 17 17 18 27 45 59 62 61 61 63 64 64
47 47 47 47 47 48 48 49 49 49 49 49 50 49 49 50 50 49 49 50 50 50 49 49 49 49 49 46 40 36 36 32 32 37 51 55 51 51 51 47 48 35 32 31 28 21 16 15 15 16 20 19 22 25 25 26 27 26 25 24 22 21 16 11 10 10 11 12 13 14 15 15 16 15 16 15 15 14 17 51 57 62 62 61 61 62 63 64
46 47 47 47 47 47 48 49 49 49 49 49 49 49 49 49 50 50 50 49 49 50 49 49 49 49 49 46 39 33 26 34 37 44 39 37 43 46 42 38 44 38 32 28 28 23 15 13 16 17 14 12 15 12 13 22 21 23 24 26 27 24 18 13 10 8 8 9 12 11 11 13 15 16 15 15 15 15 48 51 60 62 62 61 61 61 62 63
47 47 46 46 47 47 47 48 48 48 49 49 49 49 49 49 49 50 49 49 49 49 49 49 49 49 46 41 38 25 25 36 35 35 32 32 32 32 37 39 37 32 23 17 18 15 14 13 15 16 16 13 14 12 13 16 18 19 18 17 15 19 19 17 13 11 9 9 9 9 10 10 13 16 13 15 15 16 46 53 61 62 61 61 61 61 62 62
48 48 47 47 46 47 47 48 48 48 48 48 48 48 49 49 49 49 49 49 49 49 49 49 48 48 43 43 36 24 29 35 39 37 34 33 33 32 31 32 34 29 19 20 18 18 18 18 18 14 15 11 12 12 18 18 20 18 21 21 21 20 15 13 13 11 9 8 8 8 8 9 10 11 11 14 20 17 18 47 60 61 61 61 61 61 62 62
47 47 46 46 46 47 47 47 48 48 48 48 48 49 49 49 50 49 50 50 50 50 48 49 49 47 45 40 39 34 37 38 39 36 35 35 34 33 32 30 29 26 25 23 21 19 17 17 18 15 12 13 10 13 13 19 17 18 20 18 21 22 20 17 12 12 11 8 8 8 7 5 6 7 10 14 18 33 32 49 58 61 61 61 61 62 62 62
48 48 47 47 46 46 47 47 47 48 48 48 48 49 49 50 50 50 50 50 50 50 50 49 48 47 43 37 37 39 39 38 37 37 36 36 35 34 33 32 31 29 25 22 20 20 18 18 18 16 14 14 14 10 14 16 17 18 19 20 20 19 18 18 15 12 11 11 8 7 4 4 4 6 7 9 20 38 51 54 58 59 61 61 61 62 62 62
47 46 46 46 47 47 47 47 48 48 48 48 49 49 50 50 51 51 51 51 51 51 49 50 49 46 42 36 36 38 39 39 38 38 37 37 34 32 32 31 29 26 24 21 20 19 18 17 18 16 15 12 10 17 15 15 20 16 18 24 21 18 17 16 17 14 12 12 9 6 4 4 4 5 6 8 13 38 49 54 57 59 60 61 61 62 62 62
48 47 47 48 46 46 47 47 47 47 48 49 49 49 49 50 51 51 52 52 51 51 50 48 45 40 37 36 39 40 49 47 43 42 41 35 32 32 32 31 28 26 25 23 22 23 20 20 18 15 12 18 15 14 13 16 19 20 15 15 18 18 17 17 19 14 12 14 9 5 6 5 4 4 6 14 25 44 45 55 57 59 60 60 61 61 62 62
47 46 47 46 46 46 46 46 47 47 48 49 49 49 50 50 51 51 51 51 51 51 48 45 45 41 36 33 33 45 38 35 32 33 39 36 33 31 33 30 27 26 23 21 21 21 20 18 15 13 12 14 12 12 15 14 14 21 16 17 19 16 16 15 15 16 13 13 10 6 5 6 5 5 6 21 29 44 42 54 57 58 59 60 60 61 61 62
47 47 47 46 45 46 46 46 47 47 48 48 49 49 49 50 51 51 51 51 51 49 43 41 43 42 28 33 36 32 32 34 34 34 36 38 34 33 32 26 27 19 15 13 23 19 19 18 20 20 14 11 14 15 13 13 14 15 20 18 20 18 17 14 15 15 16 11 12 10 6 7 8 5 10 25 31 45 43 54 57 58 59 60 60 61 61 61
47 46 46 46 45 45 46 47 47 47 48 49 49 49 47 49 51 50 49 51 48 47 46 45 40 37 32 33 29 31 34 34 34 34 35 35 35 34 33 26 20 16 14 12 13 17 18 16 13 14 15 15 12 15 12 9 11 13 16 18 18 20 19 17 14 14 14 15 14 14 13 12 10 6 5 9 27 39 36 53 57 58 59 60 60 60 61 61
47 47 47 46 45 46 46 47 47 48 48 49 49 48 49 49 46 45 44 44 37 34 29 32 33 25 23 25 33 34 35 35 35 35 27 26 34 35 30 30 19 15 13 11 12 11 12 14 15 12 10 11 10 10 11 10 13 14 16 17 21 18 18 15 16 18 14 13 13 13 12 12 12 10 7 11 21 29 32 44 55 58 59 59 59 59 60 61
47 46 46 46 46 46 46 47 47 48 49 47 45 44 40 37 35 33 38 40 36 34 31 32 37 35 36 35 34 36 36 34 31 29 30 28 35 24 26 21 19 15 12 16 12 14 16 11 10 10 10 10 10 11 10 11 12 11 11 12 11 11 12 13 12 13 13 12 12 12 12 12 12 12 11 10 9 23 31 43 49 52 58 59 59 59 59 60
47 47 46 45 46 46 46 47 48 48 49 46 43 39 35 35 32 31 35 35 36 37 36 36 35 35 35 36 36 35 32 32 32 31 30 34 27 20 18 17 15 18 16 12 11 17 13 12 12 11 10 10 9 10 12 11 11 10 10 10 10 10 9 9 9 9 8 14 13 14 12 12 13 14 13 12 12 10 24 40 48 50 56 58 59 59 59 60
47 46 46 46 46 47 47 48 48 49 49 43 42 40 41 37 38 38 36 33 34 35 35 36 36 35 36 36 36 36 34 31 29 29 30 27 22 19 19 16 15 15 17 15 18 15 14 11 10 11 12 11 10 9 9 9 8 9 10 10 9 9 9 8 7 6 6 6 6 5 5 7 14 15 14 14 11 12 15 33 46 52 57 58 59 59 59 59
47 47 46 46 46 47 48 48 48 48 42 41 41 41 38 40 42 42 37 35 33 35 34 34 34 34 34 35 35 33 30 29 28 29 28 24 20 19 18 16 18 16 16 14 16 17 14 12 12 12 12 11 11 9 8 8 10 9 9 9 8 9 8 7 7 8 6 8 8 8 7 9 16 19 16 16 14 14 9 25 38 50 57 59 59 59 59 59
47 46 46 46 46 47 48 48 48 44 41 42 42 41 42 42 42 38 36 31 31 33 33 34 34 34 33 32 32 32 30 29 29 28 29 22 19 21 19 16 16 18 15 15 14 14 14 14 13 13 11 11 10 10 9 10 9 10 8 8 7 7 7 6 7 7 6 5 6 6 8 8 18 10 12 17 20 25 23 26 36 42 55 60 60 60 59 59
46 46 47 47 47 47 48 48 41 42 43 42 42 45 44 44 43 39 35 30 30 32 36 34 34 33 32 31 30 27 30 29 27 27 33 23 22 20 19 20 18 17 17 17 15 13 12 12 12 11 10 8 8 7 8 9 9 9 8 8 7 7 6 6 5 4 7 6 5 6 5 11 21 11 10 13 17 19 21 19 24 37 46 58 60 60 60 60
47 46 46 47 47 47 48 40 39 43 42 40 40 43 45 44 44 39 34 26 23 25 31 19 32 20 29 26 31 27 26 24 25 26 30 25 32 22 23 18 19 17 18 17 16 17 15 17 14 13 12 11 7 5 6 7 8 9 8 8 7 7 6 6 5 4 6 4 4 8 5 8 17 19 17 18 17 16 18 18 17 24 43 53 59 60 60 60
47 47 46 48 48 48 41 37 42 42 37 39 42 45 46 45 43 39 29 17 15 26 24 21 23 27 27 29 31 29 23 22 29 28 29 32 26 25 21 19 20 22 18 24 19 15 15 15 18 18 17 14 11 7 5 6 7 7 7 7 7 6 6 5 5 4 5 12 7 13 9 8 11 13 17 20 19 18 18 17 17 21 36 49 55 59 60 60
47 47 48 48 48 48 43 42 42 40 40 42 45 45 46 45 42 37 26 10 12 25 28 26 25 31 34 33 32 29 29 29 26 29 31 36 29 24 21 20 18 19 26 19 15 19 21 17 18 17 18 15 13 13 10 6 5 6 6 7 6 5 6 6 5 5 5 6 4 7 9 5 7 11 19 21 14 17 17 17 17 18 22 44 51 56 59 60
47 48 48 49 48 47 46 42 40 40 43 45 45 46 46 43 37 29 19 11 24 29 28 34 32 31 33 33 32 29 29 30 27 32 34 33 27 30 22 22 22 21 23 21 18 19 20 18 18 18 15 14 14 13 12 6 7 5 6 8 8 6 4 4 4 4 7 8 5 5 7 4 7 13 13 19 13 13 15 17 16 16 17 25 45 52 56 59
47 48 48 48 47 43 42 44 41 44 44 45 45 46 45 39 32 22 12 12 28 24 30 30 32 32 33 33 33 34 31 32 31 33 36 31 28 29 26 26 24 25 22 22 21 20 21 28 28 19 17 15 14 13 12 11 11 11 8 4 2 4 5 11 11 6 7 4 7 7 7 4 2 9 9 11 18 18 17 17 18 18 19 21 31 43 51 56
48 49 49 49 43 42 41 40 43 45 45 45 45 43 38 33 23 13 13 20 30 29 32 33 32 35 33 33 32 34 31 30 30 31 29 33 30 28 30 26 28 22 22 21 20 20 19 19 19 20 23 19 16 15 16 13 11 8 6 5 3 7 11 7 8 11 3 3 6 7 6 5 3 9 11 16 21 18 16 16 17 17 17 23 23 32 44 52
48 48 48 47 45 44 39 39 42 45 45 46 44 37 30 17 22 18 14 31 22 26 29 31 34 33 34 34 32 31 29 31 33 31 28 28 27 25 24 23 22 18 18 19 18 22 18 17 18 17 28 18 17 15 15 14 11 5 5 9 8 4 2 -1 4 4 2 2 8 8 7 6 5 7 12 11 11 11 16 15 15 16 17 20 23 24 36 47
48 48 48 47 48 44 44 43 44 44 46 45 40 31 21 12 13 22 26 30 23 29 30 34 34 35 35 32 29 31 31 27 32 32 32 32 27 28 29 26 26 20 17 22 18 19 18 20 21 18 17 22 17 14 14 13 12 7 7 8 4 -2 -2 -5 3 7 9 12 12 9 9 5 9 13 10 9 10 10 13 19 20 21 21 20 22 26 30 41
48 47 45 46 47 46 46 47 46 46 45 43 35 29 23 17 18 36 30 30 28 35 36 34 35 35 33 28 28 28 23 26 31 31 30 29 28 26 28 30 27 25 22 21 18 17 11 16 18 18 15 18 16 15 14 12 13 5 5 7 9 8 2 -4 5 -1 2 3 8 10 6 10 6 14 16 12 11 10 10 11 14 17 18 20 21 27 31 38
47 45 43 43 45 47 46 45 45 46 41 37 29 22 21 19 24 23 25 28 33 36 34 36 34 33 31 28 29 31 26 25 31 29 28 28 26 25 24 26 28 25 26 19 23 20 18 17 19 18 17 16 17 16 15 13 10 9 8 6 7 5 15 5 15 12 15 13 9 13 10 18 8 22 20 16 14 14 21 22 28 24 24 24 26 27 37 41
44 42 43 42 46 47 46 47 45 43 39 34 22 21 20 25 20 27 29 34 36 33 33 35 34 28 27 24 28 26 34 27 30 29 28 28 27 26 27 28 27 26 23 21 21 15 18 18 21 20 19 18 18 18 15 11 11 19 5 7 6 9 8 5 8 18 16 14 5 14 14 14 20 16 18 20 20 20 22 22 22 23 23 24 26 26 33 47
41 43 41 43 45 47 48 47 47 41 37 30 22 21 24 29 31 34 38 33 32 35 31 29 27 23 25 23 22 26 28 28 30 28 26 30 26 28 27 29 28 27 25 23 21 20 16 16 18 19 18 19 16 15 14 15 13 12 13 10 10 11 14 13 3 12 7 3 8 17 9 12 11 12 28 20 20 20 21 20 20 23 22 22 24 25 28 49
41 41 44 45 44 46 47 46 43 40 34 29 25 33 32 30 36 34 36 36 36 34 31 29 31 32 26 27 29 30 28 29 29 31 28 27 22 30 28 28 29 27 26 25 22 24 21 18 20 20 20 20 20 19 17 17 16 12 12 15 11 12 4 17 7 -0 2 3 4 15 19 17 16 16 21 19 17 17 18 21 22 22 23 23 23 23 24 48
41 39 38 43 46 46 46 45 41 36 28 23 23 30 34 33 35 34 36 37 35 35 32 32 26 30 30 30 30 32 32 30 31 30 28 27 22 28 26 27 27 28 27 25 23 26 23 17 19 21 19 21 23 17 15 14 14 13 12 10 19 17 17 8 10 12 15 7 9 12 17 15 19 19 20 20 22 24 23 24 23 23 23 24 24 25 27 44
38 35 35 43 46 48 48 44 38 32 24 26 26 25 32 32 34 36 37 37 32 34 32 30 33 29 32 32 33 32 33 32 31 30 28 29 25 29 26 27 26 28 27 25 25 26 22 22 15 19 23 18 15 18 16 16 12 11 10 11 10 15 18 11 21 14 13 9 10 12 10 17 22 24 21 21 24 24 24 24 25 27 28 27 27 29 33 45
39 35 36 43 48 48 46 41 34 28 27 29 30 30 32 32 34 35 37 38 36 38 34 33 31 30 34 34 33 35 35 34 31 29 27 28 27 24 31 27 27 27 27 25 24 27 23 23 20 21 20 19 19 21 15 14 13 12 11 11 8 9 7 6 7 18 18 14 14 11 12 18 22 27 28 26 29 30 29 28 31 31 31 32 33 32 38 49
34 29 34 45 46 46 43 36 30 30 29 30 31 32 33 37 35 35 35 37 37 35 38 35 36 35 36 36 36 35 34 33 32 30 30 28 30 28 32 31 33 32 29 25 25 27 26 27 23 21 21 20 20 20 22 23 24 19 9 10 8 12 12 11 6 13 18 17 19 18 13 16 30 31 32 31 30 31 31 32 32 34 37 39 40 39 40 51
34 31 39 44 46 44 39 32 34 31 30 31 36 36 36 36 34 34 33 35 33 37 37 35 36 37 38 36 35 35 35 32 32 29 29 31 30 30 29 35 36 35 33 34 32 36 33 28 23 23 24 25 26 26 25 26 25 24 23 15 8 11 8 8 11 19 15 20 17 17 15 17 31 32 31 28 28 30 32 32 36 39 40 42 42 41 40 51
36 35 37 43 45 43 36 30 30 32 34 35 33 32 35 35 34 33 31 33 32 33 34 35 38 38 36 38 36 34 36 30 34 33 32 32 31 33 36 35 36 38 35 34 28 37 27 30 25 22 21 21 21 22 23 25 25 24 21 19 10 10 10 13 16 23 11 17 17 17 14 15 27 27 26 26 28 30 29 31 40 40 41 41 42 42 42 52
37 37 37 40 46 43 33 30 32 32 33 29 30 29 30 32 35 34 33 33 33 33 32 31 35 39 38 38 35 36 35 33 31 34 33 32 32 35 40 38 39 39 35 36 35 35 28 29 26 20 17 13 10 10 12 18 22 23 21 16 12 10 15 19 14 16 15 21 16 16 15 18 23 25 24 26 30 29 28 30 38 41 41 40 42 44 44 52
34 27 32 32 36 38 38 39 38 29 25 27 27 29 31 30 32 33 35 30 33 32 30 31 36 38 38 36 33 31 31 35 33 32 33 32 34 36 41 40 38 39 40 40 39 34 30 33 29 25 22 20 20 18 20 26 19 17 18 17 14 11 11 17 25 19 16 16 16 17 19 21 22 22 23 25 28 28 27 31 36 39 40 41 42 44 47 52
33 27 27 27 29 35 37 35 28 27 26 29 26 29 30 31 30 30 31 27 33 30 31 33 37 33 31 30 30 31 33 33 35 33 33 33 34 36 40 39 40 40 42 40 39 35 32 30 31 29 28 27 25 21 20 28 25 21 17 16 14 13 15 15 16 18 25 19 18 22 27 25 22 23 24 25 26 27 28 31 37 40 41 41 41 43 49 54
24 28 31 30 25 26 27 26 30 30 30 27 27 32 29 29 28 26 29 32 31 30 28 30 31 31 30 30 32 31 32 32 33 32 35 34 34 35 39 39 37 40 41 39 37 37 32 28 30 31 30 30 29 26 24 25 27 27 17 18 16 15 18 17 19 21 28 20 19 23 26 25 22 22 23 24 29 30 29 34 39 41 41 40 41 44 51 55
31 31 33 35 27 28 27 29 32 32 31 29 27 30 28 28 28 28 27 29 29 29 31 26 27 29 30 32 33 31 32 30 30 32 33 34 35 35 36 38 39 41 39 38 36 38 34 30 30 32 30 30 29 28 28 27 27 28 26 17 16 15 17 22 24 24 24 24 26 24 24 23 23 23 23 24 30 32 35 39 40 39 39 41 43 47 52 56
31 30 29 34 33 32 32 31 31 30 26 31 26 28 29 29 28 29 30 27 26 27 32 29 29 30 31 31 32 30 32 34 33 31 33 34 34 35 36 36 35 40 41 37 36 37 35 29 33 32 28 28 29 28 26 28 29 28 29 22 15 15 15 17 20 23 28 26 27 26 24 22 21 23 24 27 34 39 39 36 36 37 40 44 47 51 55 57
37 35 34 33 30 30 33 31 29 29 25 26 26 29 30 29 29 31 30 30 29 28 30 29 30 31 31 31 29 31 34 35 33 32 33 34 33 36 37 37 38 34 37 37 37 37 36 31 34 31 26 24 29 31 31 30 30 30 29 25 16 20 18 19 19 22 21 20 23 25 22 19 19 21 29 38 39 36 34 35 36 38 43 46 47 52 56 58
40 40 38 34 30 34 30 31 30 28 23 27 29 29 29 30 31 32 28 30 33 33 31 32 31 31 30 28 28 29 30 29 28 29 29 32 36 36 38 40 41 38 35 35 38 35 34 32 31 31 28 21 26 28 31 29 27 24 26 26 20 21 22 24 24 28 24 23 21 20 15 17 19 28 36 37 36 35 35 36 37 41 43 46 47 49 56 58